#�ϑ�����,���ϕ���,���ϕ���,�ő啗��,�ő啗����������,�ő�u�ԕ���,�ő�u�ԕ�����������
#(�N����),(m/s)   ,(16����),(m/s)   ,(16����)        ,(m/s)       ,(16����)            
2013/5/16 0:01,0.8,16,0.8,15,3,15
2013/5/16 0:02,0.9,1,0.9,15,3.5,1
2013/5/16 0:03,1.1,1,1.1,15,3,16
2013/5/16 0:04,1.2,1,1.2,1,1.5,16
2013/5/16 0:05,1.2,1,1.2,1,1.8,1
2013/5/16 0:06,1.3,1,1.3,1,2.1,1
2013/5/16 0:07,1.5,1,1.5,1,2.7,1
2013/5/16 0:08,1.6,16,1.6,16,2.4,16
2013/5/16 0:09,1.5,16,1.6,16,1.6,15
2013/5/16 0:10,1.4,16,1.5,16,1.4,14
2013/5/16 0:11,1.4,16,1.4,16,1.8,14
2013/5/16 0:12,1.4,15,1.4,16,2.2,14
2013/5/16 0:13,1.3,15,1.4,16,1.8,13
2013/5/16 0:14,1.3,15,1.3,16,1.1,16
2013/5/16 0:15,1.3,15,1.3,16,3,16
2013/5/16 0:16,1.4,15,1.4,16,4.4,16
2013/5/16 0:17,1.4,15,1.4,16,3,15
2013/5/16 0:18,1.4,15,1.4,16,1.9,14
2013/5/16 0:19,1.3,15,1.4,16,1.3,15
2013/5/16 0:20,1.3,15,1.3,16,1,12
2013/5/16 0:21,1.3,14,1.3,16,1.6,10
2013/5/16 0:22,1.2,14,1.3,15,1.5,14
2013/5/16 0:23,1.1,15,1.1,15,1.6,3
2013/5/16 0:24,1.1,15,1.1,15,0.8,12
2013/5/16 0:25,1.1,15,1.1,15,2.1,15
2013/5/16 0:26,1,14,1.1,15,2.5,15
2013/5/16 0:27,1,15,1,15,3.3,15
2013/5/16 0:28,1,14,1,15,3,16
2013/5/16 0:29,1,15,1,15,1,3
2013/5/16 0:30,1.1,15,1.1,14,2.7,1
2013/5/16 0:31,1.2,16,1.2,14,4.3,1
2013/5/16 0:32,1.4,16,1.4,16,3.6,15
2013/5/16 0:33,1.6,16,1.6,16,3.6,15
2013/5/16 0:34,1.7,16,1.7,16,2.5,16
2013/5/16 0:35,1.7,16,1.7,16,2.4,15
2013/5/16 0:36,1.7,16,1.7,16,2.2,14
2013/5/16 0:37,1.6,16,1.7,16,2.4,16
2013/5/16 0:38,1.8,16,1.8,16,3.2,16
2013/5/16 0:39,1.8,15,1.8,16,2.4,15
2013/5/16 0:40,1.9,15,1.9,15,2.2,2
2013/5/16 0:41,1.8,15,1.9,15,2.6,15
2013/5/16 0:42,1.7,15,1.8,15,2.2,15
2013/5/16 0:43,1.6,15,1.7,15,1.8,13
2013/5/16 0:44,1.6,15,1.6,15,1.5,13
2013/5/16 0:45,1.5,15,1.6,15,3,16
2013/5/16 0:46,1.7,15,1.7,15,3,15
2013/5/16 0:47,1.7,14,1.7,15,2.6,14
2013/5/16 0:48,1.6,14,1.7,15,2.5,16
2013/5/16 0:49,1.6,14,1.6,15,2.4,15
2013/5/16 0:50,1.6,14,1.6,15,2.2,15
2013/5/16 0:51,1.6,14,1.6,15,2,16
2013/5/16 0:52,1.6,14,1.6,15,2.2,16
2013/5/16 0:53,1.6,15,1.6,15,2,15
2013/5/16 0:54,1.6,15,1.6,15,1.8,16
2013/5/16 0:55,1.6,15,1.6,15,1.4,15
2013/5/16 0:56,1.5,15,1.6,15,3.3,15
2013/5/16 0:57,1.5,15,1.5,14,2.6,16
2013/5/16 0:58,1.5,15,1.5,14,2.7,16
2013/5/16 0:59,1.5,15,1.5,14,2.5,16
2013/5/16 1:00,1.5,15,1.6,14,2.5,15
2013/5/16 1:01,1.5,15,1.5,14,1.6,14
2013/5/16 1:02,1.5,15,1.5,14,2.6,14
2013/5/16 1:03,1.6,15,1.6,15,2.6,14
2013/5/16 1:04,1.7,15,1.7,15,2.6,14
2013/5/16 1:05,1.8,14,1.8,14,3.3,15
2013/5/16 1:06,1.9,14,1.9,14,3.2,14
2013/5/16 1:07,1.9,14,1.9,14,3,15
2013/5/16 1:08,1.9,14,1.9,14,2.7,15
2013/5/16 1:09,1.9,15,1.9,14,2.1,2
2013/5/16 1:10,1.9,15,1.9,14,1.8,16
2013/5/16 1:11,1.8,15,1.9,14,1.6,1
2013/5/16 1:12,1.7,15,1.8,14,1.8,15
2013/5/16 1:13,1.6,16,1.7,14,1.5,16
2013/5/16 1:14,1.5,16,1.6,14,1.8,16
2013/5/16 1:15,1.4,16,1.5,14,1.9,1
2013/5/16 1:16,1.3,16,1.4,14,1.8,16
2013/5/16 1:17,1.3,16,1.3,14,2.1,15
2013/5/16 1:18,1.2,16,1.3,14,2.1,16
2013/5/16 1:19,1.3,16,1.3,15,2.9,16
2013/5/16 1:20,1.4,16,1.4,15,3.1,15
2013/5/16 1:21,1.5,16,1.5,15,3.2,15
2013/5/16 1:22,1.7,16,1.7,15,3.6,15
2013/5/16 1:23,1.9,16,1.9,16,3.6,15
2013/5/16 1:24,2,16,2,16,2.9,16
2013/5/16 1:25,2,15,2,16,2.7,16
2013/5/16 1:26,2.1,16,2.1,16,2.6,16
2013/5/16 1:27,2.2,16,2.2,16,3,16
2013/5/16 1:28,2.3,16,2.3,16,3.5,16
2013/5/16 1:29,2.4,16,2.4,16,3.6,16
2013/5/16 1:30,2.4,16,2.4,16,3.2,16
2013/5/16 1:31,2.4,16,2.4,16,3,16
2013/5/16 1:32,2.3,16,2.4,16,2.2,16
2013/5/16 1:33,2.2,16,2.3,16,2.2,1
2013/5/16 1:34,2.2,16,2.2,16,2.6,1
2013/5/16 1:35,2.2,16,2.2,16,2.9,16
2013/5/16 1:36,2.2,16,2.2,16,2.5,16
2013/5/16 1:37,2.1,16,2.2,16,1.9,16
2013/5/16 1:38,2,16,2.1,16,2.9,15
2013/5/16 1:39,1.8,16,2,16,2,3
2013/5/16 1:40,1.8,16,1.8,16,2.5,16
2013/5/16 1:41,1.7,16,1.8,16,2.6,1
2013/5/16 1:42,1.8,16,1.8,16,2.4,2
2013/5/16 1:43,1.9,16,1.9,16,3.2,16
2013/5/16 1:44,2,16,2,16,4.4,16
2013/5/16 1:45,2,16,2.1,16,4.5,16
2013/5/16 1:46,2.2,16,2.2,16,4.4,15
2013/5/16 1:47,2.2,16,2.2,16,3.9,16
2013/5/16 1:48,2.4,16,2.4,16,4.4,16
2013/5/16 1:49,2.5,16,2.5,16,3.2,16
2013/5/16 1:50,2.4,16,2.5,16,3.6,16
2013/5/16 1:51,2.5,16,2.5,16,3.5,16
2013/5/16 1:52,2.6,16,2.6,16,4.3,16
2013/5/16 1:53,2.6,16,2.7,16,4.1,16
2013/5/16 1:54,2.5,16,2.6,16,3.2,16
2013/5/16 1:55,2.5,16,2.5,16,3.5,16
2013/5/16 1:56,2.5,16,2.5,16,2.7,16
2013/5/16 1:57,2.4,16,2.4,16,3,16
2013/5/16 1:58,2.3,16,2.4,16,3.1,16
2013/5/16 1:59,2.3,16,2.3,16,3,16
2013/5/16 2:00,2.4,16,2.4,16,3.2,15
2013/5/16 2:01,2.3,16,2.4,16,2.9,15
2013/5/16 2:02,2.2,16,2.3,16,2.9,16
2013/5/16 2:03,2.2,16,2.2,16,3.3,16
2013/5/16 2:04,2.1,16,2.2,16,2.4,1
2013/5/16 2:05,2,16,2.1,16,1.6,2
2013/5/16 2:06,1.9,16,2,16,2.1,16
2013/5/16 2:07,1.8,16,1.9,16,1.5,16
2013/5/16 2:08,1.7,16,1.7,16,1.8,16
2013/5/16 2:09,1.6,16,1.6,16,1.5,1
2013/5/16 2:10,1.5,1,1.6,16,1.4,16
2013/5/16 2:11,1.4,1,1.5,16,1.6,2
2013/5/16 2:12,1.3,1,1.4,16,1.8,1
2013/5/16 2:13,1.2,1,1.3,16,1.5,2
2013/5/16 2:14,1.2,1,1.2,16,1.8,1
2013/5/16 2:15,1.2,1,1.2,16,1.6,1
2013/5/16 2:16,1.1,1,1.2,16,1.5,2
2013/5/16 2:17,1.1,1,1.1,16,1,2
2013/5/16 2:18,1.1,1,1.1,16,1.3,1
2013/5/16 2:19,1,1,1.1,16,0.9,1
2013/5/16 2:20,1,1,1,1,0.6,16
2013/5/16 2:21,0.9,1,1,1,0.5,1
2013/5/16 2:22,0.7,1,0.9,1,0.4,3
2013/5/16 2:23,0.7,1,0.7,1,1.1,1
2013/5/16 2:24,0.6,1,0.7,1,0.9,1
2013/5/16 2:25,0.5,1,0.6,1,0.6,1
2013/5/16 2:26,0.4,1,0.5,1,0.1,16
2013/5/16 2:27,0.4,1,0.4,1,1,16
2013/5/16 2:28,0.3,16,0.4,1,0.9,16
2013/5/16 2:29,0.3,16,0.3,1,0.8,13
2013/5/16 2:30,0.4,16,0.4,1,1,12
2013/5/16 2:31,0.4,15,0.4,1,0.9,11
2013/5/16 2:32,0.4,15,0.4,1,1.4,16
2013/5/16 2:33,0.4,15,0.4,1,1.4,16
2013/5/16 2:34,0.4,15,0.4,1,0.9,16
2013/5/16 2:35,0.5,15,0.5,1,1.4,16
2013/5/16 2:36,0.6,15,0.6,15,1.5,1
2013/5/16 2:37,0.6,15,0.6,15,1.3,16
2013/5/16 2:38,0.6,16,0.6,15,0.4,2
2013/5/16 2:39,0.6,16,0.6,15,1.1,1
2013/5/16 2:40,0.7,16,0.7,16,1.5,16
2013/5/16 2:41,0.7,1,0.7,16,0.8,16
2013/5/16 2:42,0.6,16,0.7,16,0.3,16
2013/5/16 2:43,0.6,1,0.6,16,0.9,8
2013/5/16 2:44,0.6,1,0.6,16,2.2,8
2013/5/16 2:45,0.7,1,0.7,16,2,8
2013/5/16 2:46,0.7,2,0.7,16,1.5,6
2013/5/16 2:47,0.8,3,0.8,3,1.9,6
2013/5/16 2:48,0.9,4,0.9,3,1.9,5
2013/5/16 2:49,1,4,1,4,1.8,5
2013/5/16 2:50,0.9,5,1,4,1.3,3
2013/5/16 2:51,1,5,1,4,1.6,16
2013/5/16 2:52,1.1,5,1.1,5,1.5,1
2013/5/16 2:53,1.2,4,1.2,5,1.4,1
2013/5/16 2:54,1.1,3,1.2,5,0.8,16
2013/5/16 2:55,1,3,1.1,5,1.4,1
2013/5/16 2:56,1,2,1,5,1.6,16
2013/5/16 2:57,1,1,1,5,1.3,1
2013/5/16 2:58,0.9,1,1,5,1.5,16
2013/5/16 2:59,0.9,1,0.9,5,2.9,15
2013/5/16 3:00,1,16,1,5,2.2,15
2013/5/16 3:01,1,16,1,5,1.1,12
2013/5/16 3:02,0.9,16,1,5,1.3,16
2013/5/16 3:03,0.9,16,0.9,4,1.4,16
2013/5/16 3:04,1,16,1,3,0.8,16
2013/5/16 3:05,1,16,1,2,0.8,16
2013/5/16 3:06,0.9,16,0.9,2,1,16
2013/5/16 3:07,0.9,16,0.9,1,1.1,16
2013/5/16 3:08,0.9,16,0.9,1,1.5,3
2013/5/16 3:09,0.8,1,0.9,1,1.8,1
2013/5/16 3:10,0.9,1,0.9,16,2.2,16
2013/5/16 3:11,0.9,1,0.9,16,1.9,16
2013/5/16 3:12,1,1,1,16,1.8,16
2013/5/16 3:13,1,1,1,16,1.1,2
2013/5/16 3:14,1,1,1,16,0.9,2
2013/5/16 3:15,1,2,1,1,1.1,5
2013/5/16 3:16,1,2,1,1,1.4,16
2013/5/16 3:17,1,2,1,1,1.9,16
2013/5/16 3:18,1,1,1,1,1.1,16
2013/5/16 3:19,1,1,1,1,1.1,14
2013/5/16 3:20,0.9,1,1,1,1.6,10
2013/5/16 3:21,0.8,1,0.9,1,0.9,2
2013/5/16 3:22,0.8,1,0.8,1,1.5,3
2013/5/16 3:23,0.8,2,0.8,1,1.3,2
2013/5/16 3:24,0.8,1,0.8,1,1.1,16
2013/5/16 3:25,0.8,1,0.8,2,1.4,1
2013/5/16 3:26,0.7,16,0.8,2,0.8,1
2013/5/16 3:27,0.7,16,0.7,2,0.9,13
2013/5/16 3:28,0.7,16,0.7,1,1.1,12
2013/5/16 3:29,0.7,15,0.7,1,1.8,10
2013/5/16 3:30,0.8,15,0.8,1,2.2,10
2013/5/16 3:31,0.9,15,0.9,15,2.6,9
2013/5/16 3:32,1,13,1,14,2.6,10
2013/5/16 3:33,1.1,12,1.1,12,1.8,9
2013/5/16 3:34,1.1,11,1.1,12,1.9,8
2013/5/16 3:35,1.1,10,1.2,10,2.1,6
2013/5/16 3:36,1.2,9,1.2,10,1,5
2013/5/16 3:37,1.2,9,1.2,10,0.9,5
2013/5/16 3:38,1.1,8,1.2,10,0.3,7
2013/5/16 3:39,1.1,8,1.1,10,1.9,8
2013/5/16 3:40,1.1,8,1.1,10,1.9,10
2013/5/16 3:41,1.1,8,1.1,10,2.7,9
2013/5/16 3:42,1.2,8,1.2,10,3.2,9
2013/5/16 3:43,1.3,8,1.3,8,3.7,9
2013/5/16 3:44,1.4,8,1.4,8,2.7,10
2013/5/16 3:45,1.3,8,1.4,8,2.4,9
2013/5/16 3:46,1.3,9,1.3,8,1,10
2013/5/16 3:47,1.3,9,1.3,8,1.3,10
2013/5/16 3:48,1.5,9,1.5,9,2.5,9
2013/5/16 3:49,1.5,9,1.5,9,2.1,10
2013/5/16 3:50,1.5,9,1.5,9,1.8,5
2013/5/16 3:51,1.5,9,1.5,9,2.5,5
2013/5/16 3:52,1.4,8,1.4,9,3.5,7
2013/5/16 3:53,1.5,8,1.5,9,4.5,8
2013/5/16 3:54,1.6,8,1.6,8,3.7,9
2013/5/16 3:55,1.7,8,1.7,8,3.6,9
2013/5/16 3:56,1.9,8,1.9,8,3.9,8
2013/5/16 3:57,1.9,8,1.9,8,1.9,10
2013/5/16 3:58,1.9,8,1.9,8,2.1,8
2013/5/16 3:59,1.9,8,2,8,2.5,9
2013/5/16 4:00,2,9,2,8,1.9,11
2013/5/16 4:01,1.8,9,1.9,8,1.3,9
2013/5/16 4:02,1.7,9,1.8,8,1.1,7
2013/5/16 4:03,1.4,9,1.7,8,1.3,6
2013/5/16 4:04,1.3,9,1.4,8,1.4,11
2013/5/16 4:05,1.2,9,1.3,8,2.5,9
2013/5/16 4:06,1.2,9,1.2,8,3.5,9
2013/5/16 4:07,1.4,9,1.4,8,3.7,9
2013/5/16 4:08,1.5,9,1.5,8,2.9,10
2013/5/16 4:09,1.4,9,1.5,9,2.4,13
2013/5/16 4:10,1.4,10,1.4,9,0.8,12
2013/5/16 4:11,1.4,10,1.4,9,1.9,12
2013/5/16 4:12,1.6,10,1.6,9,2.7,12
2013/5/16 4:13,1.8,11,1.8,11,3.5,11
2013/5/16 4:14,1.9,11,1.9,11,3.1,11
2013/5/16 4:15,1.8,11,1.9,11,1.9,12
2013/5/16 4:16,1.8,11,1.8,11,3.1,11
2013/5/16 4:17,1.6,11,1.7,11,1.6,9
2013/5/16 4:18,1.5,11,1.6,11,2.1,8
2013/5/16 4:19,1.5,10,1.5,11,1.6,6
2013/5/16 4:20,1.6,10,1.6,11,1.6,6
2013/5/16 4:21,1.6,9,1.6,11,1.4,6
2013/5/16 4:22,1.5,8,1.5,11,3,1
2013/5/16 4:23,1.3,8,1.5,11,1.8,16
2013/5/16 4:24,1.3,7,1.3,11,3.1,16
2013/5/16 4:25,1.2,6,1.3,11,1.3,14
2013/5/16 4:26,1.2,5,1.2,11,3.2,2
2013/5/16 4:27,1.6,3,1.6,11,8.2,15
2013/5/16 4:28,1.7,2,1.7,3,5.1,1
2013/5/16 4:29,1.9,1,1.9,2,5.4,16
2013/5/16 4:30,2,1,2,1,5.1,16
2013/5/16 4:31,2.2,1,2.2,1,6,16
2013/5/16 4:32,2.2,1,2.2,1,3.9,2
2013/5/16 4:33,2.4,1,2.4,1,3.9,1
2013/5/16 4:34,2.5,1,2.5,1,4.7,1
2013/5/16 4:35,2.8,1,2.8,1,5.7,1
2013/5/16 4:36,2.9,1,2.9,1,4.5,2
2013/5/16 4:37,2.6,1,2.9,1,4.5,2
2013/5/16 4:38,2.6,1,2.6,1,4.1,16
2013/5/16 4:39,2.5,1,2.6,1,3.5,15
2013/5/16 4:40,2.3,1,2.4,1,1.8,2
2013/5/16 4:41,2.1,1,2.3,1,1.6,14
2013/5/16 4:42,2.1,1,2.2,1,3.3,16
2013/5/16 4:43,2.1,1,2.2,1,3,1
2013/5/16 4:44,2.1,1,2.1,1,4.8,16
2013/5/16 4:45,1.9,1,2.1,1,3.5,15
2013/5/16 4:46,1.8,1,1.9,1,4.1,1
2013/5/16 4:47,1.8,1,1.8,1,1.8,1
2013/5/16 4:48,1.7,1,1.8,1,2.4,2
2013/5/16 4:49,1.6,1,1.7,1,2.9,4
2013/5/16 4:50,1.7,1,1.7,1,2.6,1
2013/5/16 4:51,1.8,2,1.8,1,3.6,3
2013/5/16 4:52,1.8,2,1.8,1,3.5,3
2013/5/16 4:53,1.7,2,1.8,1,2.4,1
2013/5/16 4:54,1.6,2,1.7,1,4.1,16
2013/5/16 4:55,1.6,2,1.6,1,4.1,16
2013/5/16 4:56,1.6,2,1.6,1,3.1,15
2013/5/16 4:57,1.7,1,1.7,1,2.4,15
2013/5/16 4:58,1.7,1,1.7,1,2,13
2013/5/16 4:59,1.5,1,1.7,1,1,12
2013/5/16 5:00,1.5,1,1.5,1,1,6
2013/5/16 5:01,1.3,1,1.4,2,1.5,3
2013/5/16 5:02,1.2,1,1.3,2,3.8,2
2013/5/16 5:03,1.4,2,1.4,2,4.9,3
2013/5/16 5:04,1.6,1,1.6,1,5.2,3
2013/5/16 5:05,1.8,2,1.8,2,5.4,1
2013/5/16 5:06,1.8,2,1.8,2,6.1,2
2013/5/16 5:07,2.1,3,2.1,3,5.7,2
2013/5/16 5:08,2.2,3,2.2,3,5.8,1
2013/5/16 5:09,2.5,3,2.5,3,6.8,2
2013/5/16 5:10,2.7,2,2.7,2,4.8,2
2013/5/16 5:11,2.9,2,2.9,2,4.2,1
2013/5/16 5:12,3.2,2,3.2,2,6.4,1
2013/5/16 5:13,3.1,2,3.2,2,5.1,3
2013/5/16 5:14,3,2,3.1,2,5.2,1
2013/5/16 5:15,2.9,2,3,2,3.7,16
2013/5/16 5:16,3,2,3,2,6.9,4
2013/5/16 5:17,3,2,3.1,2,6.8,2
2013/5/16 5:18,3,2,3,2,5.1,1
2013/5/16 5:19,3.1,2,3.1,2,5.1,3
2013/5/16 5:20,3,2,3.1,2,4.3,16
2013/5/16 5:21,2.9,2,3,2,3,3
2013/5/16 5:22,2.8,2,2.9,2,6.1,3
2013/5/16 5:23,3,3,3,2,5.5,2
2013/5/16 5:24,3.2,3,3.2,3,6.5,3
2013/5/16 5:25,3.1,3,3.2,3,3.9,1
2013/5/16 5:26,3,2,3.2,3,4.8,1
2013/5/16 5:27,2.8,2,2.9,3,6.2,16
2013/5/16 5:28,2.7,2,2.8,3,4.2,16
2013/5/16 5:29,2.5,2,2.7,3,2.6,3
2013/5/16 5:30,2.4,2,2.4,3,2.5,15
2013/5/16 5:31,2.3,2,2.3,3,2.1,16
2013/5/16 5:32,2.1,1,2.3,3,3.9,3
2013/5/16 5:33,1.8,1,2.1,3,3.6,2
2013/5/16 5:34,1.7,1,1.8,3,4.3,6
2013/5/16 5:35,1.7,1,1.8,3,4.1,5
2013/5/16 5:36,1.7,1,1.7,2,3,2
2013/5/16 5:37,1.6,2,1.7,2,2.1,4
2013/5/16 5:38,1.4,2,1.6,2,1,3
2013/5/16 5:39,1.4,2,1.4,2,1.8,7
2013/5/16 5:40,1.4,3,1.4,2,2.2,8
2013/5/16 5:41,1.4,4,1.4,2,2,8
2013/5/16 5:42,1.4,4,1.4,1,2.9,15
2013/5/16 5:43,1.4,4,1.4,1,3.8,3
2013/5/16 5:44,1.4,4,1.4,1,3.8,2
2013/5/16 5:45,1.5,4,1.5,1,3.9,4
2013/5/16 5:46,1.5,3,1.6,2,4.5,2
2013/5/16 5:47,1.6,3,1.6,2,3,1
2013/5/16 5:48,1.8,3,1.8,4,3.7,3
2013/5/16 5:49,1.9,3,1.9,3,4.1,2
2013/5/16 5:50,2.2,3,2.2,3,6.8,2
2013/5/16 5:51,2.3,2,2.3,2,5.4,2
2013/5/16 5:52,2.6,2,2.6,2,5.6,3
2013/5/16 5:53,2.7,2,2.7,2,4.8,2
2013/5/16 5:54,2.5,2,2.7,2,2,3
2013/5/16 5:55,2.3,2,2.5,2,1.9,2
2013/5/16 5:56,2.1,2,2.3,2,1.1,9
2013/5/16 5:57,2,2,2.1,2,1.6,16
2013/5/16 5:58,1.8,2,2,2,1.5,16
2013/5/16 5:59,1.8,2,1.8,2,2.2,3
2013/5/16 6:00,1.5,2,1.8,2,2.5,3
2013/5/16 6:01,1.5,2,1.5,2,4.7,4
2013/5/16 6:02,1.3,2,1.5,2,2,14
2013/5/16 6:03,1.2,2,1.3,2,4.2,3
2013/5/16 6:04,1.3,2,1.3,2,4.5,4
2013/5/16 6:05,1.4,2,1.4,2,4.1,5
2013/5/16 6:06,1.5,2,1.5,2,2.7,3
2013/5/16 6:07,1.5,2,1.5,2,1.4,2
2013/5/16 6:08,1.6,3,1.6,2,2.4,6
2013/5/16 6:09,1.5,3,1.6,2,1.9,6
2013/5/16 6:10,1.4,3,1.5,3,1.3,11
2013/5/16 6:11,1.2,4,1.4,3,1.6,7
2013/5/16 6:12,1.3,4,1.3,3,3.5,9
2013/5/16 6:13,1.4,5,1.4,3,3.9,9
2013/5/16 6:14,1.4,6,1.5,3,2.9,8
2013/5/16 6:15,1.3,6,1.4,3,2.4,6
2013/5/16 6:16,1.3,7,1.3,3,1.3,9
2013/5/16 6:17,1.3,8,1.3,3,1.3,10
2013/5/16 6:18,1.3,8,1.3,3,2.1,2
2013/5/16 6:19,1.4,8,1.4,3,8.1,15
2013/5/16 6:20,1.6,8,1.6,8,5.1,11
2013/5/16 6:21,1.8,8,1.8,8,6.2,14
2013/5/16 6:22,1.9,7,1.9,8,6.3,14
2013/5/16 6:23,2.1,15,2.1,13,9.9,14
2013/5/16 6:24,2.6,16,2.6,15,10.9,16
2013/5/16 6:25,2.6,15,2.6,15,2.7,15
2013/5/16 6:26,2.7,15,2.7,15,3.2,14
2013/5/16 6:27,2.9,15,2.9,15,6.1,13
2013/5/16 6:28,3.1,15,3.1,15,5.4,16
2013/5/16 6:29,3.3,15,3.4,15,7.6,15
2013/5/16 6:30,3.4,15,3.4,15,4.9,15
2013/5/16 6:31,3.3,15,3.4,15,4.7,14
2013/5/16 6:32,3.3,15,3.4,15,4.8,15
2013/5/16 6:33,3.1,15,3.3,15,7.4,16
2013/5/16 6:34,2.9,15,3.1,15,6,15
2013/5/16 6:35,3.1,15,3.1,15,6.9,15
2013/5/16 6:36,3,15,3.1,15,3.5,15
2013/5/16 6:37,2.9,15,3,15,5.7,16
2013/5/16 6:38,2.8,15,2.9,15,2.9,14
2013/5/16 6:39,2.6,15,2.8,16,3.1,15
2013/5/16 6:40,2.5,15,2.6,15,3,16
2013/5/16 6:41,2.3,15,2.5,15,1.5,14
2013/5/16 6:42,2.1,15,2.3,15,1,15
2013/5/16 6:43,1.8,15,2.1,15,1.4,3
2013/5/16 6:44,1.5,15,1.8,15,1.1,3
2013/5/16 6:45,1.2,16,1.5,15,1.5,2
2013/5/16 6:46,1.2,16,1.2,15,1.5,5
2013/5/16 6:47,1,1,1.3,15,1.4,3
2013/5/16 6:48,0.9,1,1,15,1.3,14
2013/5/16 6:49,0.8,1,0.9,15,1.8,12
2013/5/16 6:50,0.9,16,0.9,15,4.8,11
2013/5/16 6:51,1,1,1,15,4.4,12
2013/5/16 6:52,1.2,1,1.2,15,3.9,9
2013/5/16 6:53,1.3,10,1.3,15,4.1,10
2013/5/16 6:54,1.5,11,1.5,15,5,12
2013/5/16 6:55,1.6,12,1.6,12,3.7,13
2013/5/16 6:56,1.6,12,1.6,12,1.8,14
2013/5/16 6:57,1.7,12,1.7,12,2.4,14
2013/5/16 6:58,1.8,12,1.8,12,2.4,16
2013/5/16 6:59,1.7,13,1.8,12,1.3,15
2013/5/16 7:00,1.5,14,1.7,12,0.5,14
2013/5/16 7:01,1.5,14,1.5,12,1.5,15
2013/5/16 7:02,1.5,14,1.5,12,3,14
2013/5/16 7:03,1.5,15,1.5,12,3.8,15
2013/5/16 7:04,1.4,15,1.5,12,4.8,14
2013/5/16 7:05,1.4,15,1.4,12,2.5,13
2013/5/16 7:06,1.6,15,1.6,12,4.4,14
2013/5/16 7:07,1.8,15,1.8,12,8.3,15
2013/5/16 7:08,2.1,15,2.1,15,7,1
2013/5/16 7:09,2.3,15,2.3,15,5.5,14
2013/5/16 7:10,2.6,15,2.6,15,7.5,16
2013/5/16 7:11,3,15,3,15,8.2,15
2013/5/16 7:12,3.1,15,3.1,15,4.3,15
2013/5/16 7:13,2.9,16,3.1,15,2.9,15
2013/5/16 7:14,2.8,16,2.9,15,0.8,9
2013/5/16 7:15,2.7,16,2.8,15,2.5,1
2013/5/16 7:16,2.8,16,2.8,15,5.7,14
2013/5/16 7:17,2.7,16,2.9,15,5,15
2013/5/16 7:18,2.6,16,2.7,15,6.4,16
2013/5/16 7:19,2.8,15,2.8,15,7.6,14
2013/5/16 7:20,2.8,15,2.9,15,7.2,16
2013/5/16 7:21,2.6,15,2.8,15,4.7,16
2013/5/16 7:22,2.5,15,2.6,15,2.9,16
2013/5/16 7:23,2.5,15,2.5,16,2.1,1
2013/5/16 7:24,2.6,16,2.6,16,1.6,4
2013/5/16 7:25,2.5,15,2.6,16,2.7,16
2013/5/16 7:26,2.3,15,2.5,16,3.5,16
2013/5/16 7:27,2.2,15,2.3,15,2.4,10
2013/5/16 7:28,2,15,2.1,15,4.7,15
2013/5/16 7:29,2,15,2.1,15,6.4,14
2013/5/16 7:30,1.9,15,2,15,4.7,1
2013/5/16 7:31,1.9,15,1.9,15,5.1,16
2013/5/16 7:32,1.9,15,1.9,16,2.9,16
2013/5/16 7:33,2.1,15,2.1,16,6.7,15
2013/5/16 7:34,2.6,14,2.6,16,7.5,13
2013/5/16 7:35,2.9,14,2.9,14,6.1,15
2013/5/16 7:36,2.9,14,2.9,14,4.1,14
2013/5/16 7:37,3.2,15,3.2,15,6,14
2013/5/16 7:38,3.3,15,3.3,15,6.7,15
2013/5/16 7:39,3,15,3.3,15,2.1,15
2013/5/16 7:40,3,15,3,15,4.5,1
2013/5/16 7:41,3.2,15,3.2,15,8.9,15
2013/5/16 7:42,3.1,15,3.2,15,1.3,2
2013/5/16 7:43,2.8,15,3.1,15,1.5,7
2013/5/16 7:44,2.4,15,2.8,15,1.3,14
2013/5/16 7:45,2.1,15,2.3,15,1.9,13
2013/5/16 7:46,2,15,2.1,15,1.6,6
2013/5/16 7:47,1.7,15,1.9,15,5.4,14
2013/5/16 7:48,1.7,15,1.7,15,4.2,1
2013/5/16 7:49,1.8,15,1.8,15,5.1,1
2013/5/16 7:50,1.6,15,1.8,15,2.7,1
2013/5/16 7:51,1.5,15,1.6,15,4.4,15
2013/5/16 7:52,1.7,16,1.7,15,5,16
2013/5/16 7:53,1.8,16,1.8,15,3.7,1
2013/5/16 7:54,2.1,16,2.1,15,7,16
2013/5/16 7:55,2.6,16,2.6,16,8.7,16
2013/5/16 7:56,3,16,3,16,9.5,16
2013/5/16 7:57,3.1,16,3.1,16,6,1
2013/5/16 7:58,3.2,16,3.2,16,5.4,15
2013/5/16 7:59,3.1,16,3.1,16,4.1,3
2013/5/16 8:00,3.2,16,3.2,16,7.2,16
2013/5/16 8:01,3.5,16,3.5,16,8.2,15
2013/5/16 8:02,3.7,16,3.7,16,8.1,16
2013/5/16 8:03,4.1,16,4.1,16,8.2,1
2013/5/16 8:04,4.2,16,4.2,16,7.7,16
2013/5/16 8:05,4.1,16,4.2,16,7.9,15
2013/5/16 8:06,4,16,4.1,16,7.9,16
2013/5/16 8:07,4.3,16,4.3,16,8.1,16
2013/5/16 8:08,4.4,16,4.4,16,7.2,1
2013/5/16 8:09,4.7,16,4.7,16,9.3,16
2013/5/16 8:10,5,16,5.1,16,9.4,15
2013/5/16 8:11,5,16,5.1,16,8.6,15
2013/5/16 8:12,5.2,16,5.2,16,9.2,1
2013/5/16 8:13,5,16,5.2,16,7.5,1
2013/5/16 8:14,4.9,16,5,16,5.7,1
2013/5/16 8:15,5.1,16,5.1,16,12.3,16
2013/5/16 8:16,5.1,16,5.1,16,7.6,16
2013/5/16 8:17,4.9,16,5,16,6.9,16
2013/5/16 8:18,4.8,16,4.9,16,6.5,1
2013/5/16 8:19,4.8,16,4.8,16,7.2,15
2013/5/16 8:20,4.6,16,4.7,16,8.6,16
2013/5/16 8:21,4.5,16,4.6,16,6.5,16
2013/5/16 8:22,4.4,16,4.5,16,10.1,16
2013/5/16 8:23,4.5,16,4.5,16,9.5,15
2013/5/16 8:24,4.7,16,4.7,16,9.1,16
2013/5/16 8:25,4.4,16,4.7,16,8.4,16
2013/5/16 8:26,4.3,16,4.4,16,4.7,15
2013/5/16 8:27,4.3,16,4.4,16,5.2,16
2013/5/16 8:28,4.3,16,4.3,16,6,16
2013/5/16 8:29,4.2,16,4.3,16,7.5,16
2013/5/16 8:30,4,16,4.2,16,6,16
2013/5/16 8:31,4.1,16,4.1,16,7,15
2013/5/16 8:32,4.1,15,4.2,16,7.8,15
2013/5/16 8:33,4,15,4.1,16,7.8,15
2013/5/16 8:34,4.1,15,4.1,16,10.9,15
2013/5/16 8:35,3.8,16,4,16,5.7,16
2013/5/16 8:36,3.7,16,3.8,16,1.9,4
2013/5/16 8:37,3.4,16,3.6,16,1.8,1
2013/5/16 8:38,3.4,16,3.4,16,6.2,15
2013/5/16 8:39,3.4,16,3.5,16,6.9,16
2013/5/16 8:40,3.7,16,3.7,15,8.6,16
2013/5/16 8:41,3.4,16,3.7,15,4.8,16
2013/5/16 8:42,3.2,16,3.4,15,3.5,14
2013/5/16 8:43,3,16,3.1,15,7,16
2013/5/16 8:44,2.9,16,2.9,15,8.7,16
2013/5/16 8:45,3,16,3,16,6.7,15
2013/5/16 8:46,3.2,16,3.2,16,4.4,16
2013/5/16 8:47,3.4,15,3.4,16,5.5,16
2013/5/16 8:48,3.2,15,3.5,16,4.1,14
2013/5/16 8:49,3.3,15,3.3,16,7,15
2013/5/16 8:50,3.2,15,3.3,16,6.4,16
2013/5/16 8:51,3.3,15,3.3,15,5.6,15
2013/5/16 8:52,3.6,15,3.6,15,7.8,16
2013/5/16 8:53,3.7,15,3.7,15,7.9,16
2013/5/16 8:54,3.6,16,3.7,15,6.9,16
2013/5/16 8:55,3.7,16,3.7,15,6.5,16
2013/5/16 8:56,3.8,15,3.8,15,8.5,14
2013/5/16 8:57,3.9,15,4,15,8.3,14
2013/5/16 8:58,4,16,4,15,5.1,16
2013/5/16 8:59,3.9,15,4.1,15,3.7,14
2013/5/16 9:00,3.7,15,3.9,15,3.3,16
2013/5/16 9:01,3.6,15,3.7,15,4.4,15
2013/5/16 9:02,3.2,15,3.5,15,2.2,1
2013/5/16 9:03,3,15,3.2,15,5.2,15
2013/5/16 9:04,2.9,15,3,15,4.8,15
2013/5/16 9:05,2.9,15,2.9,15,6.1,15
2013/5/16 9:06,2.7,15,2.8,15,4.8,16
2013/5/16 9:07,2.4,16,2.7,15,2.6,5
2013/5/16 9:08,2.2,16,2.4,15,2.6,15
2013/5/16 9:09,2.6,16,2.6,15,9.8,15
2013/5/16 9:10,2.7,16,2.7,15,6.1,15
2013/5/16 9:11,2.7,16,2.7,15,5.1,15
2013/5/16 9:12,2.7,16,2.7,15,1.9,1
2013/5/16 9:13,2.7,16,2.8,15,6.3,16
2013/5/16 9:14,2.6,16,2.7,15,1.6,4
2013/5/16 9:15,2.3,16,2.6,15,1.4,15
2013/5/16 9:16,2.2,16,2.3,16,4.7,15
2013/5/16 9:17,2.3,16,2.3,16,4.8,15
2013/5/16 9:18,2.5,16,2.5,16,4.8,14
2013/5/16 9:19,2.2,16,2.5,16,7,15
2013/5/16 9:20,2.5,16,2.5,16,11.3,15
2013/5/16 9:21,2.7,16,2.7,16,9.4,1
2013/5/16 9:22,3,16,3,16,6.8,16
2013/5/16 9:23,3.4,16,3.4,16,10.9,15
2013/5/16 9:24,4,16,4,16,13.6,16
2013/5/16 9:25,4.5,16,4.5,16,8.6,15
2013/5/16 9:26,4.7,16,4.7,16,7,15
2013/5/16 9:27,4.7,16,4.7,16,5.1,16
2013/5/16 9:28,4.8,15,4.8,15,8.5,14
2013/5/16 9:29,4.9,15,4.9,15,7.6,14
2013/5/16 9:30,4.8,15,4.9,15,8.3,16
2013/5/16 9:31,5,15,5,15,14.5,15
2013/5/16 9:32,4.9,16,5,15,5.8,15
2013/5/16 9:33,4.8,15,5,15,10,16
2013/5/16 9:34,4.4,15,4.7,15,6.1,16
2013/5/16 9:35,4.2,15,4.4,15,5,15
2013/5/16 9:36,4.2,15,4.2,15,6.2,15
2013/5/16 9:37,4.3,15,4.3,15,6.9,16
2013/5/16 9:38,4.3,16,4.5,15,4.8,15
2013/5/16 9:39,4,16,4.2,15,3.2,1
2013/5/16 9:40,3.7,16,3.9,15,5.6,16
2013/5/16 9:41,3.6,16,3.6,15,9,14
2013/5/16 9:42,3.8,16,3.8,16,8.3,15
2013/5/16 9:43,3.6,16,3.8,15,6.1,16
2013/5/16 9:44,3.5,16,3.7,16,3.8,15
2013/5/16 9:45,3.3,16,3.5,16,3,16
2013/5/16 9:46,3.5,16,3.5,16,9.4,1
2013/5/16 9:47,3.4,16,3.5,16,6.2,16
2013/5/16 9:48,3.5,16,3.5,16,7.5,15
2013/5/16 9:49,4,16,4,16,9.9,16
2013/5/16 9:50,4.1,16,4.1,16,5.4,2
2013/5/16 9:51,3.8,16,4,16,6.7,15
2013/5/16 9:52,3.7,16,3.8,16,7.9,14
2013/5/16 9:53,3.9,16,3.9,16,7.8,15
2013/5/16 9:54,4.1,16,4.1,16,6.1,15
2013/5/16 9:55,4.3,16,4.3,16,5.2,15
2013/5/16 9:56,3.9,16,4.3,16,3.7,14
2013/5/16 9:57,3.9,16,3.9,16,5,16
2013/5/16 9:58,3.7,16,3.9,16,5.1,1
2013/5/16 9:59,3.4,16,3.7,16,6.7,15
2013/5/16 10:00,3.5,16,3.5,16,8.7,1
2013/5/16 10:01,3.4,16,3.6,16,6.3,1
2013/5/16 10:02,3.1,16,3.4,16,1.4,1
2013/5/16 10:03,2.7,16,3.1,16,3.9,14
2013/5/16 10:04,2.6,16,2.7,16,3.8,15
2013/5/16 10:05,2.4,16,2.5,16,2.4,13
2013/5/16 10:06,2.4,16,2.5,16,4.7,15
2013/5/16 10:07,2.4,16,2.4,16,5.6,15
2013/5/16 10:08,2.8,15,2.8,16,9.4,14
2013/5/16 10:09,3.2,15,3.2,16,10.1,16
2013/5/16 10:10,3.1,15,3.3,16,5.8,15
2013/5/16 10:11,3,15,3.1,16,3.6,1
2013/5/16 10:12,3.3,15,3.3,15,5.2,15
2013/5/16 10:13,3.3,15,3.4,15,3.6,16
2013/5/16 10:14,3.4,15,3.4,15,6.5,15
2013/5/16 10:15,3.8,15,3.8,15,8.1,15
2013/5/16 10:16,4.1,15,4.1,15,8.7,15
2013/5/16 10:17,4.1,15,4.1,15,5.6,16
2013/5/16 10:18,3.7,16,4.1,15,3.8,16
2013/5/16 10:19,3.1,15,3.6,15,3,14
2013/5/16 10:20,3,16,3.1,15,4.1,1
2013/5/16 10:21,3,16,3,15,4.8,3
2013/5/16 10:22,3,16,3,15,5.8,4
2013/5/16 10:23,3,16,3,15,3.1,3
2013/5/16 10:24,3,1,3.1,15,4.4,4
2013/5/16 10:25,2.7,1,2.9,15,4.4,3
2013/5/16 10:26,2.2,2,2.6,15,3.6,3
2013/5/16 10:27,2.1,2,2.2,15,4.8,16
2013/5/16 10:28,2.2,2,2.2,15,4.3,12
2013/5/16 10:29,2.2,2,2.2,15,3.6,14
2013/5/16 10:30,2.1,2,2.2,16,1.5,15
2013/5/16 10:31,2,1,2.1,16,2.4,12
2013/5/16 10:32,1.8,16,1.9,16,2.4,16
2013/5/16 10:33,1.9,15,1.9,16,5.1,14
2013/5/16 10:34,1.8,15,2,1,4.3,15
2013/5/16 10:35,1.8,15,1.8,1,3.5,1
2013/5/16 10:36,1.9,15,1.9,2,2,1
2013/5/16 10:37,1.8,15,1.9,2,2.5,12
2013/5/16 10:38,1.7,15,1.8,2,4.3,15
2013/5/16 10:39,1.8,15,1.8,2,5.4,16
2013/5/16 10:40,2,15,2,2,6.1,15
2013/5/16 10:41,2.3,15,2.3,15,6.5,16
2013/5/16 10:42,2.5,15,2.5,15,4.9,15
2013/5/16 10:43,2.5,15,2.5,15,5.2,14
2013/5/16 10:44,2.7,15,2.7,15,7.5,15
2013/5/16 10:45,2.8,15,2.8,15,3.7,15
2013/5/16 10:46,2.9,15,2.9,15,5.6,1
2013/5/16 10:47,3.1,15,3.1,15,4.1,1
2013/5/16 10:48,3,16,3.1,15,4.2,1
2013/5/16 10:49,3,16,3,15,3.7,16
2013/5/16 10:50,2.8,16,3,15,2.2,1
2013/5/16 10:51,2.6,15,2.8,15,3.3,13
2013/5/16 10:52,2.3,15,2.6,15,2.2,14
2013/5/16 10:53,2.1,16,2.3,15,2.2,15
2013/5/16 10:54,1.9,16,2.1,15,3.1,15
2013/5/16 10:55,1.8,16,1.9,15,2.1,1
2013/5/16 10:56,1.6,16,1.7,15,2.5,15
2013/5/16 10:57,1.6,15,1.6,15,5.2,15
2013/5/16 10:58,1.6,15,1.6,16,3.5,15
2013/5/16 10:59,1.6,15,1.6,16,2.9,16
2013/5/16 11:00,1.7,15,1.7,16,3.2,16
2013/5/16 11:01,1.6,16,1.7,15,3.3,1
2013/5/16 11:02,1.6,16,1.6,15,2.6,5
2013/5/16 11:03,1.6,16,1.6,16,2.4,5
2013/5/16 11:04,1.5,16,1.6,16,1.8,6
2013/5/16 11:05,1.5,15,1.5,16,1.9,12
2013/5/16 11:06,1.6,16,1.6,15,4.9,2
2013/5/16 11:07,1.6,1,1.6,15,4.5,3
2013/5/16 11:08,1.6,2,1.7,15,3.2,3
2013/5/16 11:09,1.5,3,1.6,15,1.8,2
2013/5/16 11:10,1.5,3,1.5,15,2.6,2
2013/5/16 11:11,1.5,3,1.5,2,3,2